Time,TemperatureF,DewpointF,PressureIn,WindDirection,WindDirectionDegrees,WindSpeedMPH,WindSpeedGustMPH,Humidity,HourlyPrecipIn,Conditions,Clouds,dailyrainin,SoftwareType,DateUTC
2013-07-21 00:01:00,72.0,21.0,-100.00,WNW,293,1.0,2.0,14,-99.99,,,-99.99,,2013-07-21 06:01:00,
2013-07-21 00:11:00,72.0,21.0,-100.00,WNW,293,1.0,2.0,14,-99.99,,,-99.99,,2013-07-21 06:11:00,
2013-07-21 00:22:00,71.0,21.0,-100.00,SW,225,0.0,3.0,14,-99.99,,,-99.99,,2013-07-21 06:22:00,
2013-07-21 00:32:00,71.0,21.0,-100.00,SW,225,0.0,3.0,14,-99.99,,,-99.99,,2013-07-21 06:32:00,
2013-07-21 00:42:00,72.0,21.0,-100.00,SW,224,4.0,6.0,14,-99.99,,,-99.99,,2013-07-21 06:42:00,
2013-07-21 00:52:00,72.0,21.0,-100.00,SW,224,4.0,6.0,14,-99.99,,,-99.99,,2013-07-21 06:52:00,
2013-07-21 01:01:00,72.0,21.0,-100.00,SW,222,5.0,6.0,14,-99.99,,,-99.99,,2013-07-21 07:01:00,
2013-07-21 01:11:00,72.0,21.0,-100.00,SW,222,5.0,6.0,14,-99.99,,,-99.99,,2013-07-21 07:11:00,
2013-07-21 01:22:00,72.0,21.0,-100.00,SW,227,4.0,5.0,14,-99.99,,,-99.99,,2013-07-21 07:22:00,
2013-07-21 01:32:00,72.0,21.0,-100.00,SW,227,4.0,5.0,14,-99.99,,,-99.99,,2013-07-21 07:32:00,
2013-07-21 01:43:00,71.0,21.0,-100.00,SSW,210,1.0,4.0,14,-99.99,,,-99.99,,2013-07-21 07:43:00,
2013-07-21 01:53:00,71.0,21.0,-100.00,SSW,210,1.0,4.0,14,-99.99,,,-99.99,,2013-07-21 07:53:00,
2013-07-21 02:01:00,71.0,21.0,-100.00,South,175,1.0,5.0,14,-99.99,,,-99.99,,2013-07-21 08:01:00,
2013-07-21 02:11:00,71.0,20.0,-100.00,WSW,237,3.0,6.0,14,-99.99,,,-99.99,,2013-07-21 08:11:00,
2013-07-21 02:22:00,71.0,20.0,-100.00,WSW,237,3.0,6.0,14,-99.99,,,-99.99,,2013-07-21 08:22:00,
2013-07-21 02:33:00,71.0,20.0,-100.00,WSW,237,3.0,6.0,14,-99.99,,,-99.99,,2013-07-21 08:33:00,
2013-07-21 02:43:00,70.0,22.0,-100.00,SW,215,2.0,6.0,15,-99.99,,,-99.99,,2013-07-21 08:43:00,
2013-07-21 02:52:00,70.0,22.0,-100.00,SW,215,2.0,6.0,15,-99.99,,,-99.99,,2013-07-21 08:52:00,
2013-07-21 03:02:00,71.0,22.0,-100.00,SSW,212,3.0,5.0,15,-99.99,,,-99.99,,2013-07-21 09:02:00,
2013-07-21 03:12:00,71.0,22.0,-100.00,SW,224,2.0,5.0,15,-99.99,,,-99.99,,2013-07-21 09:12:00,
2013-07-21 03:22:00,71.0,22.0,-100.00,SW,224,2.0,5.0,15,-99.99,,,-99.99,,2013-07-21 09:22:00,
2013-07-21 03:32:00,71.0,22.0,-100.00,SW,224,2.0,5.0,15,-99.99,,,-99.99,,2013-07-21 09:32:00,
2013-07-21 03:52:00,70.0,21.0,-100.00,NW,318,1.0,2.0,15,-99.99,,,-99.99,,2013-07-21 09:52:00,
2013-07-21 04:01:00,70.0,23.0,-100.00,NW,321,1.0,3.0,16,-99.99,,,-99.99,,2013-07-21 10:01:00,
2013-07-21 04:22:00,71.0,23.0,-100.00,NNW,343,2.0,4.0,16,-99.99,,,-99.99,,2013-07-21 10:22:00,
2013-07-21 04:32:00,71.0,23.0,-100.00,NNW,343,2.0,4.0,16,-99.99,,,-99.99,,2013-07-21 10:32:00,
2013-07-21 04:43:00,70.0,22.0,-100.00,West,275,1.0,5.0,16,-99.99,,,-99.99,,2013-07-21 10:43:00,
2013-07-21 04:52:00,70.0,22.0,-100.00,West,275,1.0,5.0,16,-99.99,,,-99.99,,2013-07-21 10:52:00,
2013-07-21 05:02:00,69.0,21.0,-100.00,North,11,1.0,6.0,15,-99.99,,,-99.99,,2013-07-21 11:02:00,
2013-07-21 05:11:00,69.0,21.0,-100.00,NNE,27,1.0,3.0,16,-99.99,,,-99.99,,2013-07-21 11:11:00,
2013-07-21 05:22:00,69.0,21.0,-100.00,NNE,27,1.0,3.0,16,-99.99,,,-99.99,,2013-07-21 11:22:00,
2013-07-21 05:32:00,69.0,21.0,-100.00,NNE,27,1.0,3.0,16,-99.99,,,-99.99,,2013-07-21 11:32:00,
2013-07-21 05:52:00,70.0,23.0,-100.00,West,279,1.0,2.0,16,-99.99,,,-99.99,,2013-07-21 11:52:00,
2013-07-21 06:01:00,70.0,23.0,-100.00,WSW,255,2.0,4.0,17,-99.99,,,-99.99,,2013-07-21 12:01:00,
2013-07-21 06:22:00,69.0,23.0,-100.00,West,260,1.0,3.0,17,-99.99,,,-99.99,,2013-07-21 12:22:00,
2013-07-21 06:32:00,69.0,23.0,-100.00,West,260,1.0,3.0,17,-99.99,,,-99.99,,2013-07-21 12:32:00,
2013-07-21 06:53:00,70.0,22.0,-100.00,NNE,26,0.0,2.0,16,-99.99,,,-99.99,,2013-07-21 12:53:00,
2013-07-21 07:01:00,70.0,20.0,-100.00,SW,224,1.0,4.0,14,-99.99,,,-99.99,,2013-07-21 13:01:00,
2013-07-21 07:11:00,70.0,20.0,-100.00,SW,224,1.0,4.0,14,-99.99,,,-99.99,,2013-07-21 13:11:00,
2013-07-21 07:22:00,71.0,21.0,-100.00,North,0,0.0,0.0,14,-99.99,,,-99.99,,2013-07-21 13:22:00,
2013-07-21 07:32:00,71.0,21.0,-100.00,North,0,0.0,0.0,14,-99.99,,,-99.99,,2013-07-21 13:32:00,
2013-07-21 07:42:00,69.0,25.0,-100.00,SSW,209,6.0,8.0,19,-99.99,,,-99.99,,2013-07-21 13:42:00,
2013-07-21 07:53:00,69.0,25.0,-100.00,SSW,209,6.0,8.0,19,-99.99,,,-99.99,,2013-07-21 13:53:00,
2013-07-21 08:01:00,68.0,28.0,-100.00,WNW,303,3.0,6.0,21,-99.99,,,-99.99,,2013-07-21 14:01:00,
2013-07-21 08:12:00,68.0,28.0,-100.00,WNW,303,3.0,6.0,21,-99.99,,,-99.99,,2013-07-21 14:12:00,
2013-07-21 08:22:00,65.0,30.0,-100.00,NW,324,4.0,9.0,27,-99.99,,,-99.99,,2013-07-21 14:22:00,
2013-07-21 08:32:00,65.0,30.0,-100.00,NW,324,4.0,9.0,27,-99.99,,,-99.99,,2013-07-21 14:32:00,
2013-07-21 08:43:00,67.0,29.0,-100.00,NNW,334,4.0,8.0,24,-99.99,,,-99.99,,2013-07-21 14:43:00,
2013-07-21 08:53:00,67.0,29.0,-100.00,NNW,334,4.0,8.0,24,-99.99,,,-99.99,,2013-07-21 14:53:00,
2013-07-21 09:02:00,66.0,31.0,-100.00,North,352,3.0,6.0,25,-99.99,,,-99.99,,2013-07-21 15:02:00,
2013-07-21 09:11:00,66.0,31.0,-100.00,North,352,3.0,6.0,25,-99.99,,,-99.99,,2013-07-21 15:11:00,
2013-07-21 09:22:00,67.0,31.0,-100.00,North,357,3.0,5.0,26,-99.99,,,-99.99,,2013-07-21 15:22:00,
2013-07-21 09:32:00,67.0,31.0,-100.00,North,357,3.0,5.0,26,-99.99,,,-99.99,,2013-07-21 15:32:00,
2013-07-21 09:42:00,67.0,31.0,-100.00,North,357,3.0,5.0,26,-99.99,,,-99.99,,2013-07-21 15:42:00,
2013-07-21 09:53:00,69.0,38.0,-100.00,SW,231,3.0,9.0,31,-99.99,,,-99.99,,2013-07-21 15:53:00,
2013-07-21 10:01:00,66.0,37.0,-100.00,North,9,1.0,5.0,34,-99.99,,,-99.99,,2013-07-21 16:01:00,
2013-07-21 10:11:00,66.0,37.0,-100.00,North,9,1.0,5.0,34,-99.99,,,-99.99,,2013-07-21 16:11:00,
2013-07-21 10:22:00,69.0,36.0,-100.00,NNE,17,2.0,5.0,29,-99.99,,,-99.99,,2013-07-21 16:22:00,
2013-07-21 10:32:00,69.0,36.0,-100.00,NNE,17,2.0,5.0,29,-99.99,,,-99.99,,2013-07-21 16:32:00,
2013-07-21 10:43:00,70.0,32.0,-100.00,NE,43,1.0,3.0,25,-99.99,,,-99.99,,2013-07-21 16:43:00,
2013-07-21 10:52:00,70.0,32.0,-100.00,NE,43,1.0,3.0,25,-99.99,,,-99.99,,2013-07-21 16:52:00,
2013-07-21 11:02:00,70.0,32.0,-100.00,NE,35,2.0,5.0,24,-99.99,,,-99.99,,2013-07-21 17:02:00,
2013-07-21 11:11:00,70.0,32.0,-100.00,NE,35,2.0,5.0,24,-99.99,,,-99.99,,2013-07-21 17:11:00,
2013-07-21 11:22:00,70.0,31.0,-100.00,NNE,24,1.0,3.0,22,-99.99,,,-99.99,,2013-07-21 17:22:00,
2013-07-21 11:33:00,70.0,31.0,-100.00,NNE,24,1.0,3.0,22,-99.99,,,-99.99,,2013-07-21 17:33:00,
2013-07-21 11:42:00,72.0,38.0,-100.00,North,3,2.0,4.0,29,-99.99,,,-99.99,,2013-07-21 17:42:00,
2013-07-21 11:53:00,72.0,38.0,-100.00,North,3,2.0,4.0,29,-99.99,,,-99.99,,2013-07-21 17:53:00,
2013-07-21 12:01:00,72.0,36.0,-100.00,NNW,346,0.0,2.0,27,-99.99,,,-99.99,,2013-07-21 18:01:00,
2013-07-21 12:11:00,72.0,36.0,-100.00,NNW,346,0.0,2.0,27,-99.99,,,-99.99,,2013-07-21 18:11:00,
2013-07-21 12:21:00,73.0,37.0,-100.00,NNW,327,1.0,3.0,26,-99.99,,,-99.99,,2013-07-21 18:21:00,
2013-07-21 12:32:00,73.0,37.0,-100.00,NNW,327,1.0,3.0,26,-99.99,,,-99.99,,2013-07-21 18:32:00,
2013-07-21 12:43:00,75.0,37.0,-100.00,NNE,20,2.0,5.0,25,-99.99,,,-99.99,,2013-07-21 18:43:00,
2013-07-21 12:52:00,75.0,37.0,-100.00,NNE,20,2.0,5.0,25,-99.99,,,-99.99,,2013-07-21 18:52:00,
2013-07-21 13:01:00,75.0,38.0,-100.00,North,354,2.0,6.0,25,-99.99,,,-99.99,,2013-07-21 19:01:00,
2013-07-21 13:11:00,75.0,38.0,-100.00,North,354,2.0,6.0,25,-99.99,,,-99.99,,2013-07-21 19:11:00,
2013-07-21 13:22:00,76.0,38.0,-100.00,NNE,28,4.0,9.0,25,-99.99,,,-99.99,,2013-07-21 19:22:00,
2013-07-21 13:32:00,76.0,38.0,-100.00,NNE,28,4.0,9.0,25,-99.99,,,-99.99,,2013-07-21 19:32:00,
2013-07-21 13:42:00,78.0,38.0,-100.00,NNE,19,4.0,8.0,24,-99.99,,,-99.99,,2013-07-21 19:42:00,
2013-07-21 13:52:00,78.0,38.0,-100.00,NNE,19,4.0,8.0,24,-99.99,,,-99.99,,2013-07-21 19:52:00,
2013-07-21 14:01:00,79.0,38.0,-100.00,North,6,4.0,10.0,23,-99.99,,,-99.99,,2013-07-21 20:01:00,
2013-07-21 14:11:00,79.0,38.0,-100.00,North,6,4.0,10.0,23,-99.99,,,-99.99,,2013-07-21 20:11:00,
2013-07-21 14:22:00,78.0,35.0,-100.00,NNW,343,3.0,11.0,20,-99.99,,,-99.99,,2013-07-21 20:22:00,
2013-07-21 14:32:00,78.0,35.0,-100.00,NNW,343,3.0,11.0,20,-99.99,,,-99.99,,2013-07-21 20:32:00,
2013-07-21 14:42:00,78.0,33.0,-100.00,North,2,9.0,17.0,19,-99.99,,,-99.99,,2013-07-21 20:42:00,
2013-07-21 14:52:00,78.0,33.0,-100.00,North,2,9.0,17.0,19,-99.99,,,-99.99,,2013-07-21 20:52:00,
2013-07-21 15:01:00,78.0,31.0,-100.00,North,355,8.0,18.0,18,-99.99,,,-99.99,,2013-07-21 21:01:00,
2013-07-21 15:11:00,79.0,32.0,-100.00,North,0,9.0,17.0,18,-99.99,,,-99.99,,2013-07-21 21:11:00,
2013-07-21 15:22:00,79.0,32.0,-100.00,North,0,9.0,17.0,18,-99.99,,,-99.99,,2013-07-21 21:22:00,
2013-07-21 15:32:00,79.0,32.0,-100.00,North,0,9.0,17.0,18,-99.99,,,-99.99,,2013-07-21 21:32:00,
2013-07-21 15:52:00,80.0,32.0,-100.00,NNW,341,6.0,14.0,17,-99.99,,,-99.99,,2013-07-21 21:52:00,
2013-07-21 16:01:00,80.0,29.0,-100.00,North,357,8.0,17.0,15,-99.99,,,-99.99,,2013-07-21 22:01:00,
2013-07-21 16:11:00,79.0,28.0,-100.00,North,357,9.0,19.0,15,-99.99,,,-99.99,,2013-07-21 22:11:00,
2013-07-21 16:22:00,79.0,28.0,-100.00,North,357,9.0,19.0,15,-99.99,,,-99.99,,2013-07-21 22:22:00,
2013-07-21 16:32:00,79.0,28.0,-100.00,North,357,9.0,19.0,15,-99.99,,,-99.99,,2013-07-21 22:32:00,
2013-07-21 16:42:00,80.0,25.0,-100.00,North,354,9.0,20.0,13,-99.99,,,-99.99,,2013-07-21 22:42:00,
2013-07-21 16:52:00,80.0,25.0,-100.00,North,354,9.0,20.0,13,-99.99,,,-99.99,,2013-07-21 22:52:00,
2013-07-21 17:01:00,80.0,25.0,-100.00,NW,326,6.0,16.0,13,-99.99,,,-99.99,,2013-07-21 23:01:00,
2013-07-21 17:11:00,80.0,25.0,-100.00,NW,326,6.0,16.0,13,-99.99,,,-99.99,,2013-07-21 23:11:00,
2013-07-21 17:22:00,80.0,26.0,-100.00,NNW,344,8.0,17.0,13,-99.99,,,-99.99,,2013-07-21 23:22:00,
2013-07-21 17:32:00,80.0,26.0,-100.00,NNW,344,8.0,17.0,13,-99.99,,,-99.99,,2013-07-21 23:32:00,
2013-07-21 17:42:00,80.0,26.0,-100.00,North,349,10.0,19.0,14,-99.99,,,-99.99,,2013-07-21 23:42:00,
2013-07-21 17:53:00,80.0,26.0,-100.00,North,349,10.0,19.0,14,-99.99,,,-99.99,,2013-07-21 23:53:00,
2013-07-21 18:01:00,80.0,27.0,-100.00,North,353,9.0,17.0,14,-99.99,,,-99.99,,2013-07-22 00:01:00,
2013-07-21 18:11:00,80.0,27.0,-100.00,North,353,9.0,17.0,14,-99.99,,,-99.99,,2013-07-22 00:11:00,
2013-07-21 18:22:00,79.0,26.0,-100.00,NNW,347,10.0,18.0,14,-99.99,,,-99.99,,2013-07-22 00:22:00,
2013-07-21 18:32:00,79.0,26.0,-100.00,NNW,347,10.0,18.0,14,-99.99,,,-99.99,,2013-07-22 00:32:00,
2013-07-21 18:53:00,79.0,26.0,-100.00,NNW,348,8.0,17.0,14,-99.99,,,-99.99,,2013-07-22 00:53:00,
2013-07-21 19:02:00,78.0,26.0,-100.00,North,356,8.0,15.0,14,-99.99,,,-99.99,,2013-07-22 01:02:00,
2013-07-21 19:11:00,78.0,26.0,-100.00,North,356,8.0,15.0,14,-99.99,,,-99.99,,2013-07-22 01:11:00,
2013-07-21 19:21:00,78.0,27.0,-100.00,North,350,8.0,14.0,15,-99.99,,,-99.99,,2013-07-22 01:21:00,
2013-07-21 19:32:00,78.0,27.0,-100.00,North,350,8.0,14.0,15,-99.99,,,-99.99,,2013-07-22 01:32:00,
2013-07-21 19:42:00,78.0,27.0,-100.00,North,352,7.0,14.0,15,-99.99,,,-99.99,,2013-07-22 01:42:00,
2013-07-21 19:52:00,78.0,27.0,-100.00,North,352,7.0,14.0,15,-99.99,,,-99.99,,2013-07-22 01:52:00,
2013-07-21 20:02:00,77.0,27.0,-100.00,NNW,346,6.0,11.0,15,-99.99,,,-99.99,,2013-07-22 02:02:00,
2013-07-21 20:11:00,77.0,27.0,-100.00,NNW,346,6.0,11.0,15,-99.99,,,-99.99,,2013-07-22 02:11:00,
2013-07-21 20:22:00,77.0,27.0,-100.00,NNW,328,4.0,12.0,15,-99.99,,,-99.99,,2013-07-22 02:22:00,
2013-07-21 20:32:00,77.0,27.0,-100.00,NNW,328,4.0,12.0,15,-99.99,,,-99.99,,2013-07-22 02:32:00,
2013-07-21 20:43:00,77.0,24.0,-100.00,WNW,300,4.0,8.0,13,-99.99,,,-99.99,,2013-07-22 02:43:00,
2013-07-21 20:52:00,77.0,24.0,-100.00,WNW,300,4.0,8.0,13,-99.99,,,-99.99,,2013-07-22 02:52:00,
2013-07-21 21:01:00,73.0,21.0,-100.00,NW,309,5.0,8.0,14,-99.99,,,-99.99,,2013-07-22 03:01:00,
2013-07-21 21:11:00,72.0,21.0,-100.00,NW,307,5.0,9.0,14,-99.99,,,-99.99,,2013-07-22 03:11:00,
2013-07-21 21:22:00,72.0,21.0,-100.00,NW,307,5.0,9.0,14,-99.99,,,-99.99,,2013-07-22 03:22:00,
2013-07-21 21:33:00,72.0,21.0,-100.00,NW,307,5.0,9.0,14,-99.99,,,-99.99,,2013-07-22 03:33:00,
2013-07-21 21:53:00,71.0,23.0,-100.00,WNW,287,5.0,7.0,16,-99.99,,,-99.99,,2013-07-22 03:53:00,
2013-07-21 22:01:00,70.0,24.0,-100.00,WNW,283,5.0,7.0,17,-99.99,,,-99.99,,2013-07-22 04:01:00,
2013-07-21 22:12:00,70.0,24.0,-100.00,WNW,283,5.0,7.0,17,-99.99,,,-99.99,,2013-07-22 04:12:00,
2013-07-21 22:22:00,70.0,22.0,-100.00,West,281,5.0,8.0,16,-99.99,,,-99.99,,2013-07-22 04:22:00,
2013-07-21 22:33:00,70.0,22.0,-100.00,West,281,5.0,8.0,16,-99.99,,,-99.99,,2013-07-22 04:33:00,
2013-07-21 22:43:00,71.0,19.0,-100.00,WNW,295,6.0,11.0,13,-99.99,,,-99.99,,2013-07-22 04:43:00,
2013-07-21 23:01:00,71.0,19.0,-100.00,West,280,5.0,9.0,14,-99.99,,,-99.99,,2013-07-22 05:01:00,
2013-07-21 23:11:00,71.0,19.0,-100.00,West,280,5.0,9.0,14,-99.99,,,-99.99,,2013-07-22 05:11:00,
2013-07-21 23:22:00,71.0,20.0,-100.00,West,279,5.0,10.0,14,-99.99,,,-99.99,,2013-07-22 05:22:00,
2013-07-21 23:32:00,71.0,20.0,-100.00,West,279,5.0,10.0,14,-99.99,,,-99.99,,2013-07-22 05:32:00,
2013-07-21 23:42:00,71.0,18.0,-100.00,NW,308,4.0,9.0,12,-99.99,,,-99.99,,2013-07-22 05:42:00,
2013-07-21 23:52:00,71.0,18.0,-100.00,NW,308,4.0,9.0,12,-99.99,,,-99.99,,2013-07-22 05:52:00,